Date String (YYYY-MM-DD hh:mm:ss) UTC,Instrument flags,Ambient pressure (hPa),Sample flow (lpm),Bypass flow (lpm),Sample temperature (°C),Ambient temperature (°C),ASC tube jacket temperature (°C),LED temperature (°C),Box temperature (°C),Sample RH (%),Span deviation,Mass concentration (μg/m³),Mass concentration (μg/m³),Mass concentration (μg/m³)
DateTimeUTC,F1_M11,P_M11,Q1_M11,Q2_M11,T1_M11,T2_M11,T3_M11,T4_M11,T5_M11,U1_M11,ZSPAN_M11,X2_M11,X0_M11,X1_M11
2022-08-20 17:00:00,,0831.0,5.00,0.00,30.1,28.8,00.0,38.9,32.0,26.1,0000.0,0007.20,0012.82,0006.10
2022-08-20 17:01:00,,0831.0,5.00,0.00,30.1,29.0,00.0,38.9,32.0,25.8,0000.0,0007.24,0013.29,0006.14
2022-08-20 17:02:00,,0831.0,5.00,0.00,30.2,29.1,00.0,38.9,32.1,26.4,0000.0,0007.29,0013.32,0006.17
2022-08-20 17:03:00,,0831.1,5.00,0.00,30.2,29.1,00.0,38.9,32.1,26.3,0000.0,0007.32,0013.83,0006.20
2022-08-20 17:04:00,,0831.0,5.00,0.00,30.2,29.2,00.0,39.0,32.2,26.3,0000.0,0007.35,0014.30,0006.23
2022-08-20 17:05:00,,0831.0,5.00,0.00,30.3,29.3,00.0,39.0,32.2,26.4,0000.0,0007.37,0014.22,0006.26
2022-08-20 17:06:00,,0831.0,5.00,0.00,30.3,29.4,00.0,39.0,32.3,26.7,0000.0,0007.42,0014.32,0006.30
2022-08-20 17:07:00,,0830.9,5.00,0.00,30.3,29.1,00.0,39.0,32.2,26.0,0000.0,0007.49,0014.81,0006.35
2022-08-20 17:08:00,,0830.9,5.01,0.00,30.3,28.4,00.0,39.0,32.0,26.2,0000.0,0007.55,0015.12,0006.43
2022-08-20 17:09:00,,0830.9,5.00,0.00,30.2,28.0,00.0,38.9,31.9,26.5,0000.0,0007.61,0015.51,0006.51
2022-08-20 17:10:00,,0830.9,4.99,0.00,30.1,28.0,00.0,38.9,31.8,26.7,0000.0,0007.71,0016.49,0006.58
2022-08-20 17:11:00,,0830.9,5.01,0.00,30.1,28.1,00.0,38.9,31.8,26.9,0000.0,0007.73,0016.29,0006.63
2022-08-20 17:12:00,,0830.9,4.99,0.00,30.1,28.2,00.0,38.9,31.9,26.7,0000.0,0007.77,0016.25,0006.70
2022-08-20 17:13:00,,0830.9,5.01,0.00,30.1,28.3,00.0,38.9,31.9,26.7,0000.0,0007.86,0016.59,0006.77
2022-08-20 17:14:00,,0830.9,5.00,0.00,30.1,28.5,00.0,38.9,31.9,26.7,0000.0,0007.96,0016.12,0006.85
2022-08-20 17:15:00,,0830.9,5.00,0.00,30.1,28.6,00.0,38.9,32.0,26.8,0000.0,0007.99,0015.97,0006.92
2022-08-20 17:16:00,,0830.9,5.01,0.00,30.1,28.8,00.0,38.9,32.0,26.9,0000.0,0008.07,0016.03,0007.01
2022-08-20 17:17:00,,0830.9,4.99,0.00,30.1,28.9,00.0,38.9,32.0,26.9,0000.0,0008.16,0016.45,0007.05
2022-08-20 17:18:00,,0830.9,5.01,0.00,30.2,29.0,00.0,38.9,32.1,26.8,0000.0,0008.17,0016.81,0007.05
2022-08-20 17:19:00,,0830.9,5.00,0.00,30.2,29.1,00.0,38.9,32.1,26.7,0000.0,0008.15,0016.96,0007.05
2022-08-20 17:20:00,,0830.9,5.00,0.00,30.2,29.2,00.0,38.9,32.1,26.9,0000.0,0008.16,0017.40,0007.06
2022-08-20 17:21:00,,0830.8,5.00,0.00,30.2,29.2,00.0,39.0,32.2,26.8,0000.0,0008.20,0016.64,0007.08
2022-08-20 17:22:00,,0830.8,5.01,0.00,30.3,29.3,00.0,39.0,32.2,27.0,0000.0,0008.27,0016.78,0007.11
2022-08-20 17:23:00,,0830.9,4.99,0.00,30.3,29.0,00.0,39.0,32.1,27.4,0000.0,0008.31,0017.59,0007.11
2022-08-20 17:24:00,,0830.8,5.01,0.00,30.2,28.3,00.0,38.9,31.9,27.3,0000.0,0008.28,0018.34,0007.12
2022-08-20 17:25:00,,0830.8,4.98,0.00,30.2,27.9,00.0,38.9,31.9,27.4,0000.0,0008.25,0018.79,0007.12
2022-08-20 17:26:00,,0830.8,5.01,0.00,30.1,27.9,00.0,38.9,31.7,27.8,0000.0,0008.28,0019.50,0007.10
2022-08-20 17:27:00,,0830.8,4.99,0.00,30.0,27.9,00.0,38.8,31.7,28.1,0000.0,0008.23,0019.70,0007.07
2022-08-20 17:28:00,,0830.8,5.01,0.00,30.0,28.1,00.0,38.8,31.7,28.5,0000.0,0008.22,0019.92,0007.07
2022-08-20 17:29:00,,0830.8,4.99,0.00,30.0,28.2,00.0,38.8,31.8,28.6,0000.0,0008.22,0019.84,0007.08
2022-08-20 17:30:00,,0830.8,5.00,0.00,30.0,28.4,00.0,38.8,31.9,28.4,0000.0,0008.22,0020.68,0007.08
2022-08-20 17:31:00,,0830.8,5.01,0.00,30.0,28.5,00.0,38.8,31.9,27.7,0000.0,0008.27,0020.15,0007.09
2022-08-20 17:32:00,,0830.8,5.00,0.00,30.0,28.7,00.0,38.8,32.0,27.3,0000.0,0008.29,0019.81,0007.09
2022-08-20 17:33:00,,0830.7,4.99,0.00,30.1,28.8,00.0,38.9,32.0,27.7,0000.0,0008.29,0019.66,0007.10
2022-08-20 17:34:00,,0830.7,5.00,0.00,30.1,28.9,00.0,38.9,32.0,27.5,0000.0,0008.28,0018.54,0007.11
2022-08-20 17:35:00,,0830.7,5.00,0.00,30.1,29.0,00.0,38.9,32.1,27.2,0000.0,0008.32,0017.67,0007.11
2022-08-20 17:36:00,,0830.8,5.00,0.00,30.1,29.1,00.0,38.9,32.1,27.3,0000.0,0008.34,0017.42,0007.13
2022-08-20 17:37:00,,0830.8,5.01,0.00,30.2,29.1,00.0,38.9,32.1,27.3,0000.0,0008.34,0016.52,0007.17
2022-08-20 17:38:00,,0830.8,4.99,0.00,30.2,29.2,00.0,38.9,32.2,27.8,0000.0,0008.38,0016.16,0007.21
2022-08-20 17:39:00,,0830.8,5.00,0.00,30.2,29.3,00.0,38.9,32.2,27.7,0000.0,0008.40,0015.66,0007.26
2022-08-20 17:40:00,,0830.8,5.00,0.00,30.3,29.2,00.0,39.0,32.2,27.8,0000.0,0008.41,0014.83,0007.27
2022-08-20 17:41:00,,0830.8,5.00,0.00,30.2,28.7,00.0,38.9,32.0,27.6,0000.0,0008.41,0013.41,0007.30
2022-08-20 17:42:00,,0830.7,5.01,0.00,30.2,28.0,00.0,38.9,31.9,28.0,0000.0,0008.36,0013.02,0007.30
2022-08-20 17:43:00,,0830.6,4.99,0.00,30.1,27.8,00.0,38.8,31.8,27.7,0000.0,0008.38,0013.03,0007.33
2022-08-20 17:44:00,,0830.6,5.01,0.00,30.0,27.9,00.0,38.8,31.7,28.1,0000.0,0008.39,0013.48,0007.35
2022-08-20 17:45:00,,0830.6,4.99,0.00,30.0,28.0,00.0,38.8,31.7,28.0,0000.0,0008.40,0013.50,0007.35
2022-08-20 17:46:00,,0830.6,5.01,0.00,30.0,28.1,00.0,38.8,31.7,28.3,0000.0,0008.42,0013.52,0007.36
2022-08-20 17:47:00,,0830.6,4.99,0.00,30.0,28.3,00.0,38.8,31.8,28.3,0000.0,0008.45,0013.41,0007.36
2022-08-20 17:48:00,,0830.6,5.01,0.00,30.0,28.4,00.0,38.8,31.9,28.5,0000.0,0008.47,0013.95,0007.35
2022-08-20 17:49:00,,0830.6,5.00,0.00,30.0,28.6,00.0,38.8,31.9,28.0,0000.0,0008.50,0014.67,0007.33
2022-08-20 17:50:00,,0830.5,5.00,0.00,30.0,28.7,00.0,38.8,32.0,28.2,0000.0,0008.48,0015.04,0007.31
2022-08-20 17:51:00,,0830.6,5.00,0.00,30.0,28.8,00.0,38.8,32.0,28.5,0000.0,0008.51,0015.61,0007.30
2022-08-20 17:52:00,,0830.6,4.99,0.00,30.1,28.9,00.0,38.8,32.0,28.3,0000.0,0008.56,0016.30,0007.28
2022-08-20 17:53:00,,0830.6,5.00,0.00,30.1,29.0,00.0,38.9,32.1,28.5,0000.0,0008.59,0016.82,0007.27
2022-08-20 17:54:00,,0830.6,5.01,0.00,30.1,29.1,00.0,38.9,32.1,28.2,0000.0,0008.56,0017.59,0007.24
2022-08-20 17:55:00,,0830.6,5.00,0.00,30.2,29.2,00.0,38.9,32.1,27.8,0000.0,0008.55,0017.48,0007.23
2022-08-20 17:56:00,,0830.6,5.00,0.00,30.2,29.2,00.0,38.9,32.2,28.2,0000.0,0008.55,0017.38,0007.23
2022-08-20 17:57:00,,0830.5,5.00,0.00,30.2,29.2,00.0,38.9,32.2,27.8,0000.0,0008.51,0017.17,0007.23
2022-08-20 17:58:00,,0830.5,4.99,0.00,30.2,28.7,00.0,38.9,32.0,28.1,0000.0,0008.46,0017.34,0007.22
2022-08-20 17:59:00,,0830.5,5.00,0.00,30.1,28.0,00.0,38.8,31.8,28.2,0000.0,0008.42,0017.66,0007.22
